sat.trackr.live / text

‹ back to catalog

STARLINK-30094

NORAD 56305 · 2023-056V

PAYLOAD ACTIVE UNKNOWN

§ Identity

Operator
Country
US
Launch date
2023-04-19
Launch site
AFETR
Launch vehicle
Mass (kg)
RCS (m²)

Purposes: comms

External: N2YO · Heavens-Above · Gunter

§ Orbital elements

Epoch: 2026-09-20T11:45:57.435840Z

Period
94.27 min
Inclination
43.0038°
Eccentricity
0.0000645
Mean motion
15.27576640 rev/d
Perigee alt
482.6 km
Apogee alt
483.5 km
Semi-major
6,861.2 km
B*
1.5135e-5
RAAN
188.5642°
Arg perigee
283.9606°
Mean anomaly
76.1174°
Rev number
18,989

§ Raw data

STARLINK-300941 56305U 23056V   26263.49024810  .00000155  00000+0  15135-4 0  99912 56305  43.0038 188.5642 0000645 283.9606  76.1174 15.27576640189896

JSON: /api/v1/satellites/56305 · /tle

For live sub-satellite position, see the globe view (requires WebGL).

§ Visibility from observer

Set your observer location to see the next 7 days of passes ≥ 10°. The values pass through the URL so the page stays shareable.

No JS? Fill the form by hand. The geolocation button needs JavaScript.